Location: Sawmill Trailhead
(33.5800°N, 116.4497°W)
Time: 22:52:21
(UTC-08:00)

Uosat F - Visible Passes

Search period start: 19 January 2018 00:00
Search period end: 29 January 2018 00:00
Orbit: 750 x 761 km, 98.7° (Epoch: 19 January)

Date Brightness Start Highest point End Pass type
(mag) Time Alt. Az. Time Alt. Az. Time Alt. Az.
19 Jan 11.0 18:23:24 10° SSE 18:28:24 85° ENE 18:33:26 10° NNW visible
20 Jan 11.7 17:44:38 10° SE 17:49:03 33° ENE 17:53:30 10° N visible
20 Jan 13.4 19:23:55 10° SSW 19:27:48 23° W 19:31:42 10° NW visible
21 Jan 14.3 05:57:38 10° ENE 06:00:09 14° E 06:02:38 10° ESE visible
21 Jan 11.6 18:43:13 10° S 18:48:08 60° WSW 18:53:05 10° NNW visible
22 Jan 11.2 18:03:52 10° SSE 18:08:42 52° ENE 18:13:33 10° N visible
22 Jan 14.0 19:45:09 10° SW 19:47:42 14° W 19:50:15 10° WNW visible
23 Jan 13.9 06:16:09 10° NE 06:20:03 22° E 06:23:55 10° SSE visible
23 Jan 12.5 19:03:21 10° SSW 19:07:56 37° W 19:12:33 10° NNW visible
24 Jan 11.0 18:23:23 10° SSE 18:28:23 84° ENE 18:33:25 10° NNW visible
25 Jan 11.7 17:44:39 10° SE 17:49:03 32° ENE 17:53:28 10° N visible
25 Jan 13.4 19:23:52 10° SSW 19:27:47 23° W 19:31:43 10° NW visible
26 Jan 14.3 05:57:42 10° ENE 06:00:08 13° E 06:02:34 10° ESE visible
26 Jan 11.6 18:43:12 10° S 18:48:07 61° WSW 18:53:05 10° NNW visible
27 Jan 11.2 18:03:52 10° SSE 18:08:41 51° ENE 18:13:32 10° N visible
27 Jan 14.0 19:45:03 10° SW 19:47:40 14° W 19:50:19 10° WNW visible
28 Jan 14.0 06:16:10 10° NE 06:20:02 22° E 06:23:53 10° SE visible
28 Jan 12.5 19:03:19 10° SSW 19:07:55 37° W 19:12:33 10° NNW visible
